STARLINK-1597, 46142

Orbit data source: Space-Track

STARLINK-1597, 46142 is a payload satellite owned by SpaceX/Seattle (US) in LEO that was launched on Tue, 18 Aug 2020 UTC via an FALCON 9 launch vehicle from the Air Force Eastern Test Range (AFETR). Payloads include a variety of satellites, spacecraft, and rockets equipped with specific instruments for various scientific and technological missions. These include communications satellites like Starlink; space stations such as the ISS; scientific satellites like the Hubble; Earth observation satellites from companies like Planet Labs, Umbra, and HawkEye 360; GPS; miniature CubeSats for education and research; and military/defense satellites.

Loading next visibility...
STARLINK-1597 details
Identifier
46142, 2020-057AB
Orbit
LEO
Last TLE update14 hours ago
Origin
Flag of USSpaceX/Seattle (US)
ManufacturerSpaceX/Seattle
MissionOperational Commercial Communications
Bus & MotorSTARLINK, Unknown motor
Mass260 kg wet, ~248 kg dry
Launch date (UTC)
2020-08-18 (4 years ago)
Launch vehicle
FALCON 9
Launch site
Air Force Eastern Test Range (AFETR)
Object type
Payload
Rocket body
Debris
Shape & HBRBox + 1 Pan, 8.86 m
Radar Cross Section13.562 m², Large (>1 m²)

Expand to show TLE details & history

TLE from 14 hours ago
0 STARLINK-1597
1 46142U 20057AB  25023.95290635  .00026154  00000-0  17678-2 0  9991
2 46142  53.0558 355.9959 0001130  98.1337 261.9780 15.06407955244966
Epoch: 2025-01-23T22:52Z
Definitive object data (Epoch: 2025-01-23T22:52:11.108Z)
Latitude-0.00005°
Longitude-110.57346°
Altitude548.176 km
Speed7.589 km/s
True Right ascension23h 43m 59s
True Declination0° 00' 00"
Sunlit
Object was in daylight at TLE epoch
Visualization TLE readout
Latitude-35.20629°
Longitude98.7078°
Altitude558.751 km
Speed7.582 km/s
Apparent Right ascension12h 33m 10s
Apparent Declination-84° 12' 28"
Sunlit
Object is in daylight
Visualization observer readout
Local Sidereal Time13:52:16
Azimuth182.373° SSW
Elevation-34.44°
Doppler factor1
Orbital elements
Apogee altitude548.24 km
Perigee altitude546.675 km
Semi-major axis6,925.595 km
Eccentricity0.000113
Inclination53.0558°
RAAN355.9959°
Arg. of periapsis98.1337°
True anomaly261.96518°
Mean anomaly261.978°
Eccentric anomaly261.97159°
Mean motion3.7658 °/min
BSTAR0.0017678
Orbital period95.6 mins
Loading maneuver chart data...
Loading historical data...
Loading historical data...
Loading historical data...
Loading historical data...
Loading historical data...
Loading historical data...
Loading historical data...

STARLINK-1597 Visibility forecast

Observer location: undefined°, undefined

Span
Click to sort rows by Start time (UTC) header in descending order
Start Az.
Max El. time (UTC)
Max El. Az.
Max El.
End time (UTC)
End Az.
7 mins2025-01-25 00:31:23.688Z223.259° SW2025-01-25 00:34:23.688Z177.074° S43.999°2025-01-25 00:38:23.688Z52.835° ENE
5 mins2025-01-25 02:12:23.688Z296.313° NW2025-01-25 02:14:23.688Z334.348° NNW21.13°2025-01-25 02:17:23.688Z26.548° NE
4 mins2025-01-25 05:34:23.688Z348.85° N2025-01-25 05:36:23.688Z26.365° NE18.304°2025-01-25 05:38:23.688Z59.76° ENE
6 mins2025-01-25 07:13:23.688Z314.487° NW2025-01-25 07:16:23.688Z79.782° E43.636°2025-01-25 07:19:23.688Z124.221° SE
|